SCP
0 1 1 1 0 0 0 0 0 0 0 0 0 0 0 0 0 0 0 1 1 1 1 1 1 1 1 1 1 1 1 1 1 1 1 0 0 0 0 0 0 0 0 0 0 0 0 0 0
0 0 1 0 0 0 0 0 0 0 0 0 0 0 0 0 0 0 1 1 1 1 1 1 1 1 1 1 1 1 1 1 1 1 1 0 0 0 0 0 0 0 0 0 0 0 0 0 0
0 0 0 0 0 0 0 0 0 0 0 0 0 0 0 0 1 1 1 1 1 1 1 1 1 1 1 1 1 1 1 1 1 1 0 0 0 0 0 0 0 0 0 0 0 0 0 0 0
0 0 0 0 0 0 0 0 0 0 0 0 0 0 1 1 1 1 1 1 1 1 1 1 1 1 1 1 1 1 1 1 1 1 0 0 0 0 0 0 0 0 0 0 0 0 0 0 0
0 0 0 0 0 0 0 0 0 0 0 0 0 1 1 1 1 1 1 1 1 1 1 1 1 1 1 1 1 1 1 1 1 1 0 0 0 0 0 0 0 0 0 0 0 0 0 0 0
0 0 0 0 0 0 0 0 0 0 0 1 1 1 1 2 2 2 2 2 1 1 2 2 1 1 1 1 1 1 1 1 1 1 1 1 0 0 0 0 0 0 0 0 0 0 0 0 0
0 0 0 0 0 0 0 0 0 0 1 1 1 1 2 3 3 3 2 2 2 2 2 2 2 2 2 1 1 1 1 1 1 1 1 1 1 0 0 0 0 0 0 0 0 0 0 0 0
0 0 0 0 0 0 0 0 0 1 1 1 1 1 3 4 4 4 3 2 2 1 1 2 2 3 2 1 1 1 1 1 1 1 1 1 1 0 0 0 0 0 0 0 0 0 0 0 0
0 0 0 0 0 0 0 1 1 1 1 2 2 2 4 6 6 5 4 3 2 2 1 1 2 2 2 1 2 1 1 1 1 1 1 1 1 1 0 0 0 0 0 0 0 0 0 0 0
0 0 0 0 0 0 0 1 1 1 1 2 3 3 5 7 7 6 4 3 3 2 2 2 2 2 2 2 2 2 2 1 1 1 1 1 1 1 1 1 0 0 0 0 0 0 0 0 0
0 0 0 0 0 0 1 1 1 1 1 2 3 4 6 8 8 6 4 4 3 3 2 2 3 3 3 3 3 2 2 2 2 2 2 1 1 1 1 1 0 0 0 0 0 0 0 0 0
0 0 0 0 0 0 0 1 1 1 1 2 4 4 6 7 7 5 5 4 4 3 3 3 3 4 4 3 3 3 2 2 2 2 2 1 1 1 1 1 1 0 0 0 0 0 0 0 0
0 0 0 0 0 0 0 1 1 1 2 2 3 4 5 5 5 6 6 6 5 5 4 4 4 4 4 4 4 3 2 2 2 2 1 1 1 1 1 1 1 0 0 0 0 0 0 0 0
0 0 0 0 0 0 0 1 1 2 2 3 3 3 4 4 4 5 7 7 6 6 5 4 4 4 4 5 5 4 3 2 2 2 1 1 1 1 1 1 1 0 0 0 0 0 0 0 0
0 0 0 0 0 0 0 1 1 2 2 3 3 3 3 3 3 4 5 5 6 6 6 4 3 3 4 4 4 4 3 2 2 2 1 1 1 1 1 1 0 0 0 0 0 0 0 0 0
0 0 0 0 0 0 0 1 2 2 3 3 3 3 3 3 3 3 3 3 4 5 4 3 3 3 3 3 3 3 3 3 2 2 2 1 1 1 1 1 0 0 0 1 0 0 0 0 0
0 0 0 0 0 0 0 1 2 2 3 3 2 2 3 3 3 3 2 2 3 3 3 2 2 3 3 3 3 3 3 3 3 2 2 2 1 1 1 0 0 0 0 0 0 0 0 0 0
0 0 0 0 0 0 0 1 1 2 2 2 2 2 2 2 2 2 2 2 2 3 2 2 3 3 3 3 3 3 3 3 2 2 3 3 2 1 1 1 0 0 0 0 0 0 0 0 0
0 0 0 0 0 0 0 1 1 2 2 2 2 2 2 2 2 2 2 2 2 3 3 3 3 3 4 4 4 4 3 2 2 2 2 3 2 2 1 1 0 0 0 0 0 0 0 0 0
0 0 0 0 0 0 0 1 1 1 2 2 2 2 2 2 2 2 2 2 2 2 3 3 3 3 4 4 4 4 4 3 2 2 2 2 2 2 1 1 1 0 0 0 0 0 0 0 0
0 0 0 0 0 0 0 1 1 1 1 1 2 2 2 2 2 2 1 2 2 2 2 3 3 3 3 4 4 4 4 3 3 2 2 1 2 2 2 1 1 1 0 0 0 0 0 0 0
0 0 0 0 0 0 0 0 1 1 1 1 1 2 2 2 2 2 1 1 1 2 2 2 2 3 3 4 4 4 4 4 3 2 2 2 2 2 2 1 1 1 0 0 0 0 0 0 0
0 0 0 0 0 0 0 0 1 1 1 1 1 2 2 2 2 2 2 1 1 1 1 2 2 2 3 3 3 4 4 4 3 2 2 2 2 2 2 2 1 1 0 0 0 0 0 0 0
0 0 0 0 0 0 0 0 0 0 1 1 1 1 2 2 2 2 2 2 1 1 2 2 2 2 2 2 2 3 3 3 2 2 2 2 2 2 2 2 1 1 0 0 0 0 0 0 0
0 0 0 0 0 0 0 0 0 0 1 1 1 1 2 2 2 2 2 2 1 1 2 2 2 3 3 2 2 2 2 2 2 2 2 2 1 1 2 2 1 1 0 0 0 0 0 0 0
0 0 0 0 0 0 0 0 0 0 1 1 1 1 1 2 2 2 2 1 1 1 1 2 2 3 3 3 2 2 2 2 1 1 1 1 1 1 1 1 1 1 0 0 0 0 0 0 0
0 0 0 0 0 0 0 0 0 0 1 1 1 1 1 1 2 1 1 1 1 1 1 1 1 2 3 3 3 2 2 1 1 1 1 1 1 0 1 1 1 1 1 0 0 0 0 0 0
0 0 0 0 0 0 0 0 0 0 1 1 1 1 1 1 1 1 1 1 1 1 1 1 1 1 2 2 2 2 1 1 1 1 1 1 1 0 1 1 1 1 1 1 1 0 0 1 1
0 0 0 0 0 0 0 0 0 0 1 1 1 2 2 2 2 1 1 1 1 1 1 1 1 1 1 1 1 1 1 1 1 1 1 1 1 1 1 1 1 1 1 1 1 1 1 1 1
0 0 0 0 0 0 0 0 0 0 1 1 1 2 2 2 2 1 1 1 1 1 1 1 1 1 1 1 1 1 1 1 1 1 1 1 1 1 1 1 1 1 1 1 1 1 1 1 1
Wind_Speed
10 8 5 5 7 4 4 5 2 3 2 2 1 1 2 3 4 5 6 15 18 19 20 19 16 16 15 15 15 15 14 14 14 13 12 12 11 11 10 10 9 9 9 10 10 10 10 10 11
6 5 6 7 6 2 6 3 2 3 3 3 2 2 2 2 5 6 9 16 19 20 19 18 18 16 16 15 14 15 14 14 14 13 12 12 11 11 10 10 10 9 9 9 9 10 10 10 11
5 7 7 6 2 3 5 3 2 1 3 4 2 1 2 4 5 6 10 19 20 19 18 18 19 18 17 15 14 14 14 14 13 13 12 11 11 11 10 10 9 9 9 9 9 10 10 10 10
5 6 6 6 1 4 3 2 1 2 4 4 3 2 3 5 3 6 15 20 20 18 18 20 19 18 17 16 15 15 14 14 13 12 11 11 10 10 10 10 9 9 9 9 9 9 9 8 8
7 6 7 4 3 2 1 3 3 4 2 3 4 1 4 5 5 11 17 19 19 18 17 20 18 18 17 16 15 15 14 14 13 12 11 11 10 10 10 9 9 9 8 8 9 9 8 8 7
6 6 6 2 4 1 0 1 4 5 3 2 4 3 5 6 9 14 17 17 18 17 17 19 18 17 17 16 15 14 14 13 13 12 11 10 10 9 9 9 9 8 8 8 8 8 7 7 6
7 6 3 1 2 2 2 1 3 4 4 4 3 3 7 8 10 14 16 15 15 16 16 17 17 16 16 15 14 14 13 13 12 11 10 10 10 9 8 8 8 8 8 7 7 7 6 6 6
6 6 4 2 1 2 2 1 3 6 4 1 4 5 4 11 13 15 15 15 14 14 15 16 15 15 14 14 14 14 13 12 12 11 10 10 9 9 8 8 8 7 7 7 7 6 6 6 6
6 8 3 1 2 3 3 4 3 3 4 4 4 2 6 15 16 16 15 14 14 13 13 14 14 13 13 13 14 14 13 12 11 11 10 9 8 8 8 8 8 6 6 6 6 6 5 5 7
7 8 1 4 6 8 7 8 6 6 8 7 5 4 10 16 17 18 18 17 17 16 14 11 12 12 12 10 11 9 9 10 8 8 9 6 4 4 5 10 7 6 6 6 6 5 6 6 5
7 8 6 6 7 9 11 9 7 9 9 6 6 9 14 16 16 17 17 16 16 16 14 12 11 11 10 8 8 6 5 6 7 7 7 5 5 4 4 5 6 6 7 5 7 7 4 2 2
8 9 9 10 10 11 11 9 7 8 7 5 1 9 15 17 16 16 16 15 15 15 14 13 12 10 9 8 7 6 5 5 5 7 7 5 3 3 3 2 3 3 3 2 2 2 2 2 2
10 9 9 11 11 9 9 8 7 5 2 2 4 11 14 14 14 13 13 12 13 13 14 13 12 11 9 7 6 6 5 5 6 5 5 5 4 4 4 2 2 2 2 4 3 2 3 2 3
6 10 12 10 7 4 6 5 4 1 1 4 6 10 12 12 12 11 12 13 13 13 13 12 11 11 9 7 6 5 5 4 5 5 6 5 4 3 3 4 3 2 2 1 2 2 2 2 2
9 11 9 4 3 2 7 7 2 2 3 5 6 7 9 10 11 11 11 12 12 12 12 12 11 11 10 8 7 5 5 5 5 4 5 5 4 4 3 3 3 2 2 3 2 3 2 3 3
10 11 7 1 2 2 8 6 5 3 4 5 6 8 9 9 10 9 10 11 11 11 11 11 10 11 10 8 7 5 5 5 4 4 5 5 4 4 3 3 3 3 3 3 2 3 3 2 2
10 8 6 2 0 4 7 7 2 2 4 5 6 8 9 9 9 9 9 10 11 11 12 12 11 11 10 8 7 6 5 5 4 4 4 5 5 5 4 3 2 4 3 3 3 3 2 3 2
5 7 6 6 4 7 8 6 1 3 4 5 6 8 8 9 10 9 9 9 10 11 12 12 12 11 10 8 6 5 5 5 4 4 4 5 5 5 4 3 4 4 3 3 2 3 1 2 2
8 9 10 7 5 8 8 7 3 3 5 6 7 8 8 8 8 8 9 9 10 11 12 12 12 12 10 8 8 7 6 5 4 4 5 5 5 5 4 3 4 4 3 3 5 4 5 4 3
10 12 10 6 3 7 8 8 2 3 5 5 6 8 8 8 9 9 9 10 10 11 11 11 12 12 11 8 6 5 6 5 4 4 5 5 5 6 6 4 4 4 3 4 4 4 3 3 3
12 12 10 9 8 7 8 8 4 5 5 6 7 8 8 9 10 10 10 10 11 11 12 11 12 12 11 10 7 6 5 4 5 5 5 5 6 6 4 5 4 4 5 5 4 4 5 4 4
12 9 9 9 10 7 5 10 2 5 6 7 8 9 9 9 10 10 10 10 11 11 11 11 11 11 11 11 10 11 8 7 7 6 5 6 6 6 6 5 4 4 3 4 5 4 4 4 4
10 5 7 9 10 11 7 9 4 4 5 7 8 9 9 10 10 10 10 10 10 11 11 11 11 11 11 11 12 11 9 7 6 6 7 6 6 6 6 5 5 4 4 3 2 3 4 4 4
7 7 8 9 10 11 6 8 6 1 1 3 8 9 9 10 10 10 9 9 8 9 10 10 11 10 11 11 11 11 10 8 8 8 8 7 6 6 7 6 5 5 3 4 4 3 4 3 2
11 11 9 10 9 7 1 6 4 2 0 2 5 9 10 10 10 10 10 10 9 10 11 11 11 11 11 12 12 11 10 10 10 9 8 7 6 6 7 6 5 4 4 4 4 4 3 4 3
13 14 11 9 8 5 4 6 2 2 2 3 5 8 10 11 11 11 11 10 10 11 11 11 11 11 11 12 11 11 11 8 8 9 7 8 6 6 7 7 6 5 5 5 4 4 4 4 4
11 13 13 12 11 10 6 4 3 3 5 6 7 9 10 11 11 11 11 11 11 11 11 11 11 11 11 12 11 11 11 9 8 9 8 7 5 6 7 7 7 6 6 5 5 4 4 4 5
10 8 7 10 10 10 7 6 3 3 5 7 8 9 10 11 12 12 12 12 11 11 11 11 11 11 11 11 11 10 10 10 8 8 8 6 6 6 7 7 7 6 6 6 6 5 5 5 5
10 10 10 9 9 10 9 4 3 1 4 6 8 9 10 12 13 12 12 12 12 12 12 11 11 11 11 11 10 10 9 9 9 8 8 7 7 7 7 7 7 7 7 7 6 6 6 7 6
10 12 11 10 10 9 10 5 3 1 3 5 7 9 10 11 12 12 12 12 12 12 12 11 11 11 11 11 10 9 9 9 9 9 8 7 7 7 7 7 7 7 6 6 7 7 7 7 7
Wind_Direction
195 207 229 243 238 217 70 69 39 57 67 66 97 281 330 347 346 40 106 152 149 149 145 151 151 149 145 142 138 135 134 134 134 134 133 131 129 126 123 119 114 110 106 105 102 102 102 105 107
198 213 235 242 258 107 86 68 58 41 67 123 162 220 271 67 53 92 139 151 153 151 149 153 149 149 146 143 141 138 136 136 134 133 132 131 130 128 124 119 115 111 108 106 105 104 103 106 109
205 237 261 253 262 35 64 70 42 90 147 190 180 247 345 52 102 132 147 156 157 151 150 145 152 150 148 145 143 140 138 138 136 135 134 133 130 127 123 118 114 112 109 108 108 105 105 109 112
223 226 238 249 122 61 7 17 339 201 178 208 231 157 97 57 97 135 149 160 156 151 152 145 155 151 150 148 146 143 142 140 138 136 134 131 128 125 122 118 114 111 109 107 106 104 105 110 116
242 254 239 208 102 74 313 308 261 234 200 194 229 222 111 101 114 140 155 161 156 156 153 147 155 153 152 150 148 147 144 142 139 138 134 130 126 124 120 117 114 111 109 108 105 102 102 109 115
239 247 244 146 94 82 175 249 227 240 236 209 237 246 103 119 140 149 158 163 160 158 152 144 154 154 154 152 152 150 147 144 142 140 136 132 126 122 122 119 116 114 110 106 106 104 101 102 112
268 264 268 343 81 108 41 349 257 254 240 225 237 247 122 142 145 154 158 162 160 160 152 149 156 157 156 155 155 153 150 146 145 143 139 134 130 126 122 118 117 115 112 111 109 107 103 102 107
278 269 228 200 285 48 37 303 294 286 278 164 219 251 135 147 152 154 156 161 162 163 157 155 162 158 161 159 158 155 152 149 147 145 144 140 138 136 132 139 121 119 117 116 114 111 107 102 107
258 253 236 36 317 331 336 295 282 272 244 207 216 308 87 141 154 157 159 163 165 166 163 163 162 160 164 160 154 160 156 153 156 156 152 166 165 150 158 118 121 128 126 122 119 118 117 133 133
244 257 305 346 314 309 308 292 277 245 238 223 196 141 133 151 162 167 169 170 171 170 169 166 162 162 165 161 154 163 166 160 176 155 162 169 147 144 125 119 131 132 134 138 131 135 169 215 158
243 271 309 302 302 300 292 285 268 258 262 257 223 171 160 164 170 174 176 175 174 172 168 165 164 167 165 158 157 162 160 158 167 157 161 154 159 156 149 150 152 155 170 166 154 184 185 169 104
255 270 282 288 300 293 288 285 274 263 292 356 278 162 167 173 177 179 179 178 175 172 171 169 166 166 169 163 158 162 163 167 163 156 172 163 167 163 145 161 150 165 162 144 168 157 141 145 157
246 276 289 290 289 290 282 274 277 283 323 60 140 161 173 177 178 180 175 173 174 173 174 170 168 165 165 163 170 162 166 168 157 160 167 172 176 173 156 155 167 185 156 170 178 160 142 165 170
284 287 285 287 292 276 272 267 251 313 87 134 151 164 173 175 175 172 172 174 174 175 172 168 170 166 166 165 171 161 165 168 166 169 163 180 180 169 174 172 180 182 184 142 169 153 160 162 129
278 275 266 244 287 301 283 246 208 75 147 156 157 160 165 171 173 175 177 177 176 174 170 170 171 168 170 169 172 166 170 174 172 158 160 177 184 170 185 178 187 175 160 161 184 160 169 171 158
249 253 252 173 309 318 281 301 83 124 180 175 165 164 168 171 176 177 177 180 177 173 171 174 172 169 170 169 170 166 173 167 167 162 159 172 174 178 197 190 179 168 185 182 167 192 177 158 165
229 249 275 279 308 309 286 309 72 167 198 184 176 174 176 173 180 179 178 181 179 176 172 175 175 170 169 169 169 164 162 166 164 163 160 167 179 181 200 187 150 188 185 186 194 163 199 166 170
251 272 282 300 331 310 294 306 336 180 208 198 183 181 182 185 186 179 176 181 179 176 173 176 173 170 166 166 161 157 161 163 166 164 156 167 174 179 193 175 173 203 183 183 176 151 182 183 195
283 280 283 296 322 302 298 304 296 205 210 203 193 188 188 188 179 175 175 178 178 174 174 178 175 172 168 168 168 168 168 167 168 169 161 167 169 172 199 188 173 212 193 190 184 188 177 190 185
256 266 273 281 311 295 299 293 258 209 218 219 204 194 191 182 174 176 178 179 181 176 177 179 179 176 176 172 167 167 160 167 164 162 158 170 174 180 190 193 192 192 179 185 187 203 207 179 198
248 258 279 298 301 254 281 270 202 183 201 205 207 200 192 187 185 180 182 183 184 181 180 179 177 175 176 165 157 152 151 162 169 167 165 171 177 184 184 186 202 187 202 176 192 197 212 203 191
248 252 272 282 284 289 299 301 266 182 203 204 200 193 190 185 183 180 181 186 187 184 180 178 176 174 172 168 172 174 176 176 178 175 163 168 181 184 179 184 186 195 199 166 200 194 216 224 211
255 275 269 274 277 280 263 282 312 178 223 205 194 189 186 183 181 179 181 180 180 178 178 176 174 175 175 178 178 181 182 177 167 167 161 176 175 182 178 181 182 189 198 180 194 177 230 227 240
239 239 243 249 257 262 278 288 300 1 283 195 180 180 180 177 177 177 175 170 171 173 174 172 172 176 175 178 182 186 180 173 168 174 172 182 176 179 178 183 183 192 189 177 190 196 201 238 260
221 236 238 234 234 254 188 271 299 18 243 224 182 176 175 175 174 173 171 170 172 175 175 175 175 178 179 181 184 185 181 179 182 183 182 186 179 177 175 181 183 187 181 185 187 195 206 203 209
220 234 248 263 268 273 202 263 335 85 155 176 170 165 170 175 174 172 171 170 170 172 174 175 176 179 179 181 182 183 182 187 188 188 184 188 187 177 166 179 185 187 189 193 192 207 200 203 218
223 232 249 260 267 276 271 266 243 178 188 182 167 165 173 173 171 170 170 170 169 170 174 176 176 177 177 178 178 181 186 192 187 179 192 188 183 174 173 184 188 191 196 203 207 217 214 208 224
247 242 231 245 258 265 263 259 277 202 197 181 176 173 171 170 170 169 169 170 170 170 173 174 176 178 177 177 180 180 183 187 184 188 188 185 182 178 178 188 193 197 199 203 215 215 208 216 221
200 217 235 248 261 271 277 284 48 283 208 189 176 170 168 169 168 167 167 169 169 168 171 175 178 178 177 179 180 178 179 180 181 185 187 186 187 184 189 195 201 206 207 206 211 226 212 219 221
237 232 226 242 246 252 275 285 92 148 185 181 168 161 162 164 163 163 164 166 169 170 171 174 177 178 177 175 172 174 173 175 181 185 188 189 191 194 196 200 206 212 212 211 217 224 222 224 228